Погода в Супре

Россия / Тюменская область     57°59′50″N   69°33′40″E
темп.,
°C
ветер,
м/с
пор.,
м/с
влажн.,
%
обл.,
%
осадки,
мм/ч
давл.,
гПа
погр.,
м
9 мая, вс
вс923:00+15в4125662 0.0 1018365
02:00+13в31165100 0.0 1018291
05:00+11в3106689 0.0 1019274
08:00+15в4746100 0.0 1020470
11:00+19в463597 0.0 10201048
14:00+21в5634100 0.0 10201480
17:00+20всв4635100 0.0 10211623
20:00+16всв494697 0.0 1022458
10 мая, пн
пн1023:00+12всв3105495 0.0 1023402
02:00+9всв3860100 0.0 1024244
05:00+8всв3862100 0.0 1025229
08:00+13в364256 0.0 1027705
11:00+17всв45325 0.0 10261545
14:00+19всв35291 0.0 10261846
17:00+19всв34300 0.0 10251864
20:00+14всв22480 0.0 102626
11 мая, вт
вт1123:00+11в22580 0.0 102717
02:00+9всв11630 0.0 102710
05:00+8в11660 0.0 102811
08:00+15вюв11440 0.0 1028377
11:00+20юв10302 0.0 10271394
14:00+22зюз122550 0.0 10261830
17:00+21з2324100 0.0 10252004
20:00+17зюз2238100 0.0 102511
12 мая, ср
ср1223:00+14з2247100 0.0 102533
02:00+12ссз286796 0.0 1024226
05:00+12сз488370 0.0 1025600
08:00+10ссз576873 0.0 1026852
11:00+14с4742100 0.0 10261352
14:00+16ссз573098 0.0 10261822
17:00+16ссз462998 0.0 10261667
20:00+12ссз26425 0.0 1026147
13 мая, чт
чт1323:00+9с23533 0.0 102644
02:00+7с11605 0.0 102610
05:00+7з01615 0.0 102610
08:00+14з234151 0.0 1026481
11:00+18з344260 0.0 10241243
14:00+18зсз4547100 0.0 10231083
17:00+20зсз4749100 0.0 10231495
20:00+16ссз2773100 0.3 1023249